Location: Ottawa
(45.4170°N, 75.7000°W)
Time: 09:24:21
(UTC-05:00)

Amateur Radio Satellites - All Passes

Search period start: 07 December 2016 08:54
Search period end: 08 December 2016 08:54
Location: Ottawa, 45.4170°N, 75.7000°W

Satellite Date Start Highest point End Downlink Frequencies (MHz)
Time Altitude Azimuth
JAS-2 07 Dec 08:57:07 09:00:54 17° 59° (ENE) 09:04:27 435.910
HUMSAT D 07 Dec 08:59:09 08:59:17 10° 88° (E) 08:59:24 437.325/437.525
UNISAT 6 07 Dec 08:59:57 09:04:31 54° 72° (ENE) 09:09:02 437.425
NOAA 18 07 Dec 09:03:54 09:05:51 12° 308° (NW) 09:07:48 137.9125
CUTE 1.7 + AOD 2 07 Dec 09:10:45 09:13:38 18° 296° (WNW) 09:16:31 437.475
CUSAT 1 07 Dec 09:11:11 09:14:10 58° 98° (E) 09:16:48 437.405
ZACube-1 07 Dec 09:15:01 09:19:17 88° 278° (W) 09:23:27 437.345
FUNcube-1 07 Dec 09:21:59 09:26:14 81° 283° (WNW) 09:30:22 145.935
NANOSAT C BR1 07 Dec 09:24:11 09:25:36 11° 59° (ENE) 09:27:01 145.865
HO-68 07 Dec 09:26:09 09:32:30 35° 300° (WNW) 09:38:50 435.675
CINEMA 3 07 Dec 09:26:34 09:28:00 11° 304° (NW) 09:29:25 145.822/145.860
AAUSAT CUBESAT 2 07 Dec 09:27:30 09:31:06 29° 292° (WNW) 09:34:41 437.432
TIGRISAT 07 Dec 09:29:24 09:34:06 84° 258° (WSW) 09:38:45 435.000
QB50P2 07 Dec 09:30:08 09:32:37 15° 61° (ENE) 09:35:04 145.880/145.840
CANX-2 07 Dec 09:30:36 09:31:40 11° 301° (WNW) 09:32:44 2200.000
POLYITAN 1 07 Dec 09:30:46 09:33:07 15° 61° (ENE) 09:35:28 437.675
ANTELSAT 07 Dec 09:31:13 09:35:55 77° 257° (WSW) 09:40:35 437.575/2403.000
CUBEBUG 2 07 Dec 09:33:57 09:37:33 25° 294° (WNW) 09:41:03 437.445
RS-15 07 Dec 09:38:38 09:50:03 47° 326° (NW) 10:01:52 29.354- 29.394
Cosmos 2504 07 Dec 09:39:01 09:40:09 10° 292° (WNW) 09:41:16 435.465 / 435.565
QB50P1 07 Dec 09:42:37 09:45:37 19° 63° (ENE) 09:48:35 145.935-145.965
PRISM 07 Dec 09:43:05 09:44:53 13° 270° (W) 09:46:41 437.425
DUCHIFAT 1 07 Dec 09:44:12 09:46:56 17° 62° (ENE) 09:49:39 145.980
Oscar 11 07 Dec 09:51:06 09:55:09 42° 289° (WNW) 09:59:13 145.826/435.025
Cosmos 2491 07 Dec 09:52:06 09:55:35 13° 310° (NW) 09:59:05 435.465 / 435.565
SEEDS 07 Dec 09:53:47 09:54:20 10° 301° (WNW) 09:54:54 437.485
GONETS M04 07 Dec 09:58:43 10:05:22 23° 61° (ENE) 10:11:59
COMPASS 1 07 Dec 10:00:43 10:02:20 12° 300° (WNW) 10:03:56 437.405
POPSAT HIP 1 07 Dec 10:03:26 10:07:07 29° 67° (ENE) 10:10:48 437.405
AO-85 07 Dec 10:06:51 10:10:52 72° 53° (NE) 10:14:44 145.980
DANDE 07 Dec 10:08:32 10:12:56 77° 100° (E) 10:16:17 436.750
DELFI C3 07 Dec 10:14:19 10:18:14 57° 286° (WNW) 10:22:08 145.870
UWE-3 07 Dec 10:14:29 10:17:01 15° 299° (WNW) 10:19:32 435.000/436.395/437.385
AIST 2 07 Dec 10:17:48 10:19:11 11° 331° (NNW) 10:20:34 435.215
ESTCUBE 1 07 Dec 10:31:16 10:34:13 17° 91° (E) 10:37:10 437.505/2401.250
HUMSAT D 07 Dec 10:31:20 10:35:25 74° 284° (WNW) 10:39:27 437.325/437.525
BUGSAT 1 07 Dec 10:34:59 10:38:16 22° 65° (ENE) 10:41:36 437.445
Cosmos 2499 07 Dec 10:35:52 10:43:53 40° 69° (ENE) 10:51:22 435.465 / 435.565
UNISAT 6 07 Dec 10:38:20 10:41:30 18° 269° (W) 10:44:41 437.425
JAS-2 07 Dec 10:39:03 10:45:27 84° 257° (WSW) 10:51:09 435.910
CUBEBUG 1 07 Dec 10:54:31 10:57:35 18° 92° (E) 11:00:37 437.445
ZACube-1 07 Dec 10:54:34 10:54:50 10° 302° (WNW) 10:55:05 437.345
NANOSAT C BR1 07 Dec 10:56:24 11:00:40 84° 254° (WSW) 11:04:58 145.865
QB50P2 07 Dec 11:03:40 11:07:55 62° 259° (W) 11:12:11 145.880/145.840
POLYITAN 1 07 Dec 11:04:08 11:08:24 65° 259° (W) 11:12:41 437.675
50 SAT 07 Dec 11:06:52 11:07:17 10° 90° (E) 11:07:43 437.505
VELOX 1 07 Dec 11:08:57 11:11:54 17° 91° (E) 11:14:50 145.980
Oscar 19 07 Dec 11:12:42 11:16:06 18° 59° (ENE) 11:19:30 437.125/150
PCSat 07 Dec 11:12:51 11:18:12 65° 118° (ESE) 11:23:35 145.827
QB50P1 07 Dec 11:16:54 11:21:02 47° 261° (W) 11:25:12 145.935-145.965
DUCHIFAT 1 07 Dec 11:18:02 11:22:12 53° 260° (W) 11:26:24 145.980
DX 1 07 Dec 11:19:04 11:20:22 11° 88° (E) 11:21:41 434.975-435.025
Gurwin Techsat 1B 07 Dec 11:21:25 11:23:29 12° 54° (NE) 11:25:34 435.225
SPROUT 07 Dec 11:31:39 11:34:47 19° 92° (E) 11:37:54 437.525
POPSAT HIP 1 07 Dec 11:39:06 11:42:50 29° 264° (W) 11:46:36 437.405
AO-85 07 Dec 11:49:26 11:50:38 11° 251° (WSW) 11:51:49 145.980
GONETS M04 07 Dec 11:54:37 12:03:22 86° 263° (W) 12:12:08
RS-15 07 Dec 11:56:12 12:06:40 31° 359° (N) 12:17:11 29.354- 29.394
AO-7 07 Dec 11:59:10 12:03:00 14° 38° (NE) 12:06:51 29.400- 29.500
BEESAT 3 07 Dec 12:04:16 12:07:29 23° 41° (NE) 12:10:40 437.485
ESTCUBE 1 07 Dec 12:06:56 12:11:20 53° 288° (WNW) 12:15:44 437.505/2401.250
AISAT 07 Dec 12:07:22 12:11:52 70° 103° (ESE) 12:16:18 437.250
BUGSAT 1 07 Dec 12:09:29 12:13:26 38° 262° (W) 12:17:25 437.445
JAS-2 07 Dec 12:28:31 12:31:11 13° 271° (W) 12:33:45 435.910
Cosmos 2499 07 Dec 12:29:02 12:37:13 50° 272° (W) 12:44:51 435.465 / 435.565
CUBEBUG 1 07 Dec 12:29:50 12:34:07 49° 289° (WNW) 12:38:23 437.445
BEESAT 2 07 Dec 12:36:24 12:39:41 23° 41° (NE) 12:42:57 435.950
50 SAT 07 Dec 12:37:25 12:40:56 56° 286° (WNW) 12:44:26 437.505
VELOX 1 07 Dec 12:44:19 12:48:40 52° 289° (WNW) 12:52:59 145.980
TISAT 1 07 Dec 12:48:21 12:51:36 21° 93° (E) 12:54:49 437.305
Oscar 19 07 Dec 12:49:46 12:54:52 70° 257° (WSW) 13:00:02 437.125/150
DX 1 07 Dec 12:52:42 12:57:06 78° 286° (WNW) 13:01:29 434.975-435.025
UKube-1 07 Dec 12:56:57 13:01:19 88° 107° (ESE) 13:05:39 .
Gurwin Techsat 1B 07 Dec 12:57:13 13:02:31 74° 73° (ENE) 13:07:51 435.225
PCSat 07 Dec 12:57:34 13:02:04 26° 318° (NW) 13:06:33 145.827
SPROUT 07 Dec 13:06:50 13:10:54 42° 290° (WNW) 13:14:56 437.525
ITAMSAT 1 07 Dec 13:21:56 13:26:31 32° 65° (ENE) 13:31:06 435.822/435.867
SWISSCUBE 07 Dec 13:24:29 13:26:29 12° 88° (E) 13:28:28 437.505
BEESAT 07 Dec 13:28:28 13:30:21 12° 88° (E) 13:32:15 436.000
AUBIESAT-1 07 Dec 13:38:41 13:39:12 10° 91° (E) 13:39:43 437.475
BEESAT 3 07 Dec 13:41:28 13:45:19 47° 240° (WSW) 13:49:07 437.485
AISAT 07 Dec 13:45:19 13:47:46 15° 300° (WNW) 13:50:12 437.250
AO-7 07 Dec 13:45:58 13:53:50 50° 61° (ENE) 14:01:46 29.400- 29.500
M-CUBED/EXP-1 PRIME 07 Dec 13:49:58 13:53:06 18° 95° (E) 13:56:10 437.505
GONETS M04 07 Dec 13:53:22 13:58:51 19° 284° (WNW) 14:04:21
ITUPSAT 1 07 Dec 13:55:39 13:59:23 22° 93° (E) 14:03:05 437.325
RS-15 07 Dec 14:11:39 14:23:23 45° 33° (NNE) 14:34:54 29.354- 29.394
BEESAT 2 07 Dec 14:13:49 14:17:42 47° 240° (WSW) 14:21:33 435.950
MOZHAYETS 4 07 Dec 14:22:21 14:22:51 10° 87° (E) 14:23:21
TISAT 1 07 Dec 14:23:26 14:27:21 37° 291° (WNW) 14:31:14 437.305
UKube-1 07 Dec 14:35:18 14:36:40 11° 302° (WNW) 14:38:02 .
Gurwin Techsat 1B 07 Dec 14:39:52 14:43:02 16° 271° (W) 14:46:14 435.225
HORYU 2 07 Dec 14:56:24 14:57:31 11° 57° (ENE) 14:58:37 437.375
SWISSCUBE 07 Dec 15:00:05 15:04:51 79° 286° (WNW) 15:09:36 437.505
O/OREOS (USA 219) 07 Dec 15:00:09 15:03:55 26° 103° (ESE) 15:07:40 437.305
BRITE-PL 07 Dec 15:01:04 15:03:28 14° 58° (ENE) 15:05:58 437.365/2234.400
ITAMSAT 1 07 Dec 15:01:05 15:05:53 37° 263° (W) 15:10:43 435.822/435.867
BEESAT 07 Dec 15:03:57 15:08:44 80° 286° (WNW) 15:13:29 436.000
AUBIESAT-1 07 Dec 15:09:39 15:14:17 88° 103° (ESE) 15:18:42 437.475
AIST 2 07 Dec 15:16:45 15:20:27 28° 43° (NE) 15:24:07 435.215
M-CUBED/EXP-1 PRIME 07 Dec 15:23:18 15:27:55 58° 293° (WNW) 15:32:21 437.505
NOAA 15 07 Dec 15:29:22 15:29:54 10° 52° (NE) 15:30:25 137.62
ITUPSAT 1 07 Dec 15:32:53 15:37:24 44° 291° (WNW) 15:41:55 437.325
Cubesat XI-IV 07 Dec 15:37:03 15:38:37 11° 53° (NE) 15:40:10 437.490
AO-7 07 Dec 15:38:59 15:46:44 42° 261° (W) 15:54:33 29.400- 29.500
ISS 07 Dec 15:53:32 15:56:40 44° 144° (SE) 15:59:51 145.825
MOZHAYETS 4 07 Dec 15:56:05 16:00:40 88° 284° (WNW) 16:05:13
Cosmos 2491 07 Dec 15:59:28 16:05:33 20° 58° (ENE) 16:11:36 435.465 / 435.565
CUBESAT XI-V 07 Dec 16:03:51 16:07:07 19° 91° (E) 16:10:22 437.345
GOMX 1 07 Dec 16:05:02 16:08:57 27° 64° (ENE) 16:13:06 467.674
DOVE 4 07 Dec 16:08:54 16:11:37 15° 58° (ENE) 16:14:24 437.250
KKS-1 07 Dec 16:14:42 16:19:10 61° 101° (ESE) 16:23:35 437.445
STARS 07 Dec 16:16:31 16:20:26 30° 96° (E) 16:24:19 437.465
RS-15 07 Dec 16:24:43 16:37:06 78° 240° (WSW) 16:49:03 29.354- 29.394
HO-68 07 Dec 16:27:05 16:29:24 12° 43° (NE) 16:31:44 435.675
HORYU 2 07 Dec 16:28:50 16:33:18 83° 76° (ENE) 16:37:49 437.375
LilacSat-2 07 Dec 16:30:10 16:33:09 22° 67° (ENE) 16:36:08 437.200
BRITE-PL 07 Dec 16:36:57 16:41:17 71° 259° (W) 16:45:59 437.365/2234.400
O/OREOS (USA 219) 07 Dec 16:38:55 16:43:09 37° 302° (WNW) 16:47:22 437.305
SWISSCUBE 07 Dec 16:40:27 16:41:50 11° 304° (NW) 16:43:12 437.505
BEESAT 07 Dec 16:44:13 16:45:43 11° 304° (NW) 16:47:12 436.000
AUBIESAT-1 07 Dec 16:45:37 16:47:58 14° 307° (NW) 16:50:17 437.475
CUTE-I 07 Dec 16:46:16 16:51:15 41° 67° (ENE) 16:56:15 437.470
AIST 2 07 Dec 16:55:04 16:59:01 39° 242° (WSW) 17:02:58 435.215
NOAA 15 07 Dec 17:03:29 17:08:38 62° 71° (ENE) 17:13:50 137.62
NOAA 18 07 Dec 17:09:04 17:14:18 44° 66° (ENE) 17:19:32 137.9125
Cubesat XI-IV 07 Dec 17:12:21 17:17:41 66° 72° (ENE) 17:23:01 437.490
CINEMA 3 07 Dec 17:14:52 17:18:03 17° 60° (ENE) 17:21:15 145.822/145.860
ISS 07 Dec 17:30:05 17:33:13 39° 342° (NNW) 17:36:22 145.825
MOZHAYETS 4 07 Dec 17:35:36 17:37:06 11° 302° (WNW) 17:38:35
CUBESAT XI-V 07 Dec 17:40:15 17:44:47 52° 288° (WNW) 17:49:19 437.345
GOMX 1 07 Dec 17:42:29 17:46:50 39° 264° (W) 17:51:30 467.674
DOVE 4 07 Dec 17:43:39 17:48:31 85° 258° (WSW) 17:53:42 437.250
KKS-1 07 Dec 17:52:27 17:55:15 17° 299° (WNW) 17:58:03 437.445
STARS 07 Dec 17:52:54 17:56:43 29° 294° (WNW) 18:00:31 437.465
Cosmos 2491 07 Dec 17:55:06 18:03:53 84° 82° (E) 18:12:37 435.465 / 435.565
LilacSat-2 07 Dec 18:03:50 18:07:18 31° 264° (W) 18:10:45 437.200
HO-68 07 Dec 18:08:39 18:15:29 50° 65° (ENE) 18:22:21 435.675
HORYU 2 07 Dec 18:09:25 18:10:26 11° 272° (W) 18:11:28 437.375
PCSat 07 Dec 18:15:58 18:19:47 19° 36° (NE) 18:23:34 145.827
YUBILEINY 07 Dec 18:24:05 18:32:23 52° 89° (E) 18:40:45 435.215
CUTE-I 07 Dec 18:26:43 18:31:24 30° 265° (W) 18:36:05 437.470
Cosmos 2504 07 Dec 18:28:31 18:35:22 28° 80° (E) 18:42:29 435.465 / 435.565
CUTE 1.7 + AOD 2 07 Dec 18:28:33 18:32:32 43° 71° (ENE) 18:36:31 437.475
RS-15 07 Dec 18:39:17 18:47:27 21° 263° (W) 18:55:29 29.354- 29.394
ZACube-1 07 Dec 18:39:25 18:41:03 12° 59° (ENE) 18:42:41 437.345
SO-50 07 Dec 18:40:45 18:43:55 18° 111° (ESE) 18:47:02 436.795
STRAND 1 07 Dec 18:43:41 18:48:05 28° 95° (E) 18:52:26 437.568
AAUSAT CUBESAT 2 07 Dec 18:44:31 18:47:48 24° 66° (ENE) 18:51:05 437.432
NOAA 15 07 Dec 18:45:14 18:48:50 19° 269° (W) 18:52:28 137.62
FUNcube-1 07 Dec 18:45:46 18:47:42 13° 60° (ENE) 18:49:37 145.935
CANX-2 07 Dec 18:46:41 18:50:54 79° 75° (ENE) 18:55:07 2200.000
CINEMA 3 07 Dec 18:49:38 18:54:35 72° 259° (WSW) 18:59:38 145.822/145.860
NOAA 18 07 Dec 18:50:19 18:55:05 29° 265° (W) 18:59:54 137.9125
Cubesat XI-IV 07 Dec 18:54:37 18:58:14 18° 270° (W) 19:01:52 437.490
CUBEBUG 2 07 Dec 18:56:28 19:00:53 40° 70° (ENE) 19:05:16 437.445
ISS 07 Dec 19:07:24 19:10:16 26° 2° (N) 19:13:09 145.825
SEEDS 07 Dec 19:08:28 19:12:38 80° 74° (ENE) 19:16:48 437.485
Oscar 11 07 Dec 19:12:38 19:15:51 21° 65° (ENE) 19:19:03 145.826/435.025
COMPASS 1 07 Dec 19:15:36 19:19:40 64° 75° (ENE) 19:23:46 437.405
DOVE 4 07 Dec 19:25:52 19:27:03 11° 276° (W) 19:28:15 437.250
DELFI C3 07 Dec 19:30:23 19:31:16 11° 60° (ENE) 19:32:07 145.870
AIST 1 07 Dec 19:32:32 19:36:49 74° 98° (E) 19:41:12
UWE-3 07 Dec 19:35:01 19:39:37 62° 73° (ENE) 19:44:09 435.000/436.395/437.385
CUSAT 1 07 Dec 19:38:15 19:41:48 46° 78° (ENE) 19:46:25 437.405
HUMSAT D 07 Dec 19:52:06 19:53:16 11° 60° (ENE) 19:54:27 437.325/437.525
Cosmos 2491 07 Dec 19:53:27 19:59:36 22° 282° (WNW) 20:05:47 435.465 / 435.565
HO-68 07 Dec 19:56:55 20:03:22 36° 264° (W) 20:09:54 435.675
PCSat 07 Dec 19:58:34 20:04:02 82° 58° (ENE) 20:09:28 145.827
CUTE 1.7 + AOD 2 07 Dec 20:05:38 20:08:35 18° 268° (W) 20:11:32 437.475
ZACube-1 07 Dec 20:12:07 20:16:40 88° 250° (WSW) 20:21:10 437.345
FUNcube-1 07 Dec 20:18:48 20:23:19 82° 257° (WSW) 20:27:48 145.935
SO-50 07 Dec 20:19:10 20:23:54 67° 308° (NW) 20:28:36 436.795
AAUSAT CUBESAT 2 07 Dec 20:19:25 20:23:07 32° 264° (W) 20:26:51 437.432
Cosmos 2504 07 Dec 20:19:32 20:27:57 70° 281° (WNW) 20:36:51 435.465 / 435.565
YUBILEINY 07 Dec 20:21:25 20:29:25 39° 291° (WNW) 20:37:31 435.215
STRAND 1 07 Dec 20:22:37 20:27:21 39° 292° (WNW) 20:32:03 437.568
CANX-2 07 Dec 20:27:09 20:27:17 10° 273° (W) 20:27:25 2200.000
CUBEBUG 2 07 Dec 20:33:41 20:37:35 25° 266° (W) 20:41:29 437.445
DANDE 07 Dec 20:42:25 20:45:11 50° 78° (ENE) 20:48:32 436.750
ISS 07 Dec 20:44:00 20:47:16 51° 23° (NNE) 20:50:31 145.825
Oscar 11 07 Dec 20:47:37 20:51:42 42° 262° (W) 20:55:49 145.826/435.025
COMPASS 1 07 Dec 20:54:03 20:55:39 12° 271° (W) 20:57:16 437.405
DELFI C3 07 Dec 21:01:33 21:05:28 77° 258° (WSW) 21:09:25 145.870
AIST 1 07 Dec 21:13:21 21:15:01 12° 296° (WNW) 21:16:40
UWE-3 07 Dec 21:13:42 21:16:27 15° 270° (W) 21:19:11 435.000/436.395/437.385
PRISM 07 Dec 21:19:22 21:23:32 74° 102° (ESE) 21:27:42 437.425
TIGRISAT 07 Dec 21:20:01 21:22:52 17° 91° (E) 21:25:40 435.000
CUSAT 1 07 Dec 21:21:23 21:23:36 15° 267° (W) 21:26:07 437.405
ANTELSAT 07 Dec 21:21:48 21:24:53 19° 91° (E) 21:27:55 437.575/2403.000
HUMSAT D 07 Dec 21:24:03 21:28:16 83° 257° (WSW) 21:32:26 437.325/437.525
ESTCUBE 1 07 Dec 21:32:51 21:36:11 21° 64° (ENE) 21:39:32 437.505/2401.250
AISAT 07 Dec 21:34:28 21:35:08 10° 57° (ENE) 21:35:48 437.250
PCSat 07 Dec 21:43:34 21:46:43 16° 256° (WSW) 21:49:50 145.827
CUBEBUG 1 07 Dec 21:52:35 21:55:48 20° 64° (ENE) 21:59:02 437.445
SO-50 07 Dec 22:02:25 22:05:15 16° 329° (NNW) 22:08:03 436.795
VELOX 1 07 Dec 22:08:15 22:11:31 21° 63° (ENE) 22:14:50 145.980
DX 1 07 Dec 22:16:18 22:18:39 14° 60° (ENE) 22:20:59 434.975-435.025
Cosmos 2504 07 Dec 22:17:56 22:23:15 17° 306° (NW) 22:28:42 435.465 / 435.565
UKube-1 07 Dec 22:20:29 22:22:04 12° 58° (ENE) 22:23:40 .
ISS 07 Dec 22:20:43 22:23:39 29° 220° (SW) 22:26:34 145.825
UNISAT 6 07 Dec 22:26:04 22:30:31 87° 104° (ESE) 22:34:49 437.425
SPROUT 07 Dec 22:27:14 22:30:25 21° 64° (ENE) 22:33:38 437.525
NANOSAT C BR1 07 Dec 22:40:12 22:42:15 13° 90° (E) 22:44:18 145.865
QB50P2 07 Dec 22:47:13 22:50:11 18° 92° (E) 22:53:08 145.880/145.840
POLYITAN 1 07 Dec 22:47:47 22:50:38 17° 92° (E) 22:53:28 437.675
TIGRISAT 07 Dec 22:55:37 22:59:53 49° 289° (WNW) 23:04:02 435.000
PRISM 07 Dec 22:56:29 22:58:15 13° 300° (WNW) 23:00:02 437.425
ANTELSAT 07 Dec 22:57:39 23:01:51 45° 289° (WNW) 23:05:57 437.575/2403.000
QB50P1 07 Dec 22:59:46 23:03:10 23° 94° (E) 23:06:32 145.935-145.965
DUCHIFAT 1 07 Dec 23:00:30 23:03:39 20° 93° (E) 23:06:46 145.980
GONETS M04 07 Dec 23:04:23 23:10:43 23° 78° (ENE) 23:17:03
AISAT 07 Dec 23:06:23 23:10:49 80° 74° (ENE) 23:15:17 437.250
ESTCUBE 1 07 Dec 23:08:25 23:12:41 45° 261° (W) 23:17:01 437.505/2401.250
50 SAT 07 Dec 23:14:19 23:17:48 78° 76° (ENE) 23:21:20 437.505
Cosmos 2499 07 Dec 23:14:52 23:22:04 31° 81° (E) 23:29:25 435.465 / 435.565
POPSAT HIP 1 07 Dec 23:21:06 23:25:03 37° 97° (E) 23:28:59 437.405
CUBEBUG 1 07 Dec 23:27:36 23:31:46 45° 261° (W) 23:36:01 437.445
PHONESAT 2.4 07 Dec 23:29:51 23:30:52 12° 157° (SSE) 23:31:53 2401.200-2431.200
O/OREOS (USA 219) 07 Dec 23:29:59 23:31:20 11° 44° (NE) 23:32:40 437.305
JAS-2 07 Dec 23:30:23 23:35:34 68° 103° (ESE) 23:41:00 435.910
TISAT 1 07 Dec 23:41:59 23:45:16 22° 65° (ENE) 23:48:34 437.305
VELOX 1 07 Dec 23:43:27 23:47:41 45° 261° (W) 23:51:58 145.980
BUGSAT 1 07 Dec 23:49:11 23:52:42 26° 94° (E) 23:56:11 437.445
DX 1 07 Dec 23:49:58 23:54:17 69° 257° (WSW) 23:58:40 434.975-435.025
UKube-1 07 Dec 23:53:08 23:57:28 84° 259° (W) 00:01:49 .
SPROUT 08 Dec 00:01:58 00:06:04 42° 262° (W) 00:10:12 437.525
UNISAT 6 08 Dec 00:05:06 00:06:30 11° 302° (WNW) 00:07:54 437.425
NANOSAT C BR1 08 Dec 00:14:12 00:18:24 61° 286° (WNW) 00:22:31 145.865
QB50P2 08 Dec 00:22:09 00:26:12 44° 289° (WNW) 00:30:13 145.880/145.840
POLYITAN 1 08 Dec 00:22:37 00:26:41 46° 289° (WNW) 00:30:42 437.675
AUBIESAT-1 08 Dec 00:24:03 00:27:07 19° 56° (NE) 00:30:16 437.475
AO-85 08 Dec 00:24:26 00:27:15 15° 111° (ESE) 00:29:58 145.980
SWISSCUBE 08 Dec 00:32:23 00:35:50 20° 62° (ENE) 00:39:17 437.505
QB50P1 08 Dec 00:35:09 00:39:01 35° 291° (WNW) 00:42:51 145.935-145.965
DUCHIFAT 1 08 Dec 00:35:33 00:39:30 39° 290° (WNW) 00:43:24 145.980
BEESAT 08 Dec 00:36:15 00:39:40 20° 62° (ENE) 00:43:06 436.000
M-CUBED/EXP-1 PRIME 08 Dec 00:37:13 00:40:55 29° 60° (ENE) 00:44:48 437.505
AISAT 08 Dec 00:46:41 00:47:51 11° 272° (W) 00:49:02 437.250
POPSAT HIP 1 08 Dec 00:57:20 01:00:38 22° 295° (WNW) 01:03:54 437.405
GONETS M04 08 Dec 00:57:46 01:06:30 81° 279° (W) 01:15:16
Oscar 19 08 Dec 00:59:12 01:03:57 35° 97° (E) 01:08:41 437.125/150
PHONESAT 2.4 08 Dec 01:03:18 01:05:34 25° 173° (S) 01:07:50 2401.200-2431.200
ITUPSAT 1 08 Dec 01:04:13 01:08:30 34° 67° (ENE) 01:12:48 437.325
Cosmos 2499 08 Dec 01:05:54 01:14:30 67° 282° (WNW) 01:23:25 435.465 / 435.565
O/OREOS (USA 219) 08 Dec 01:07:06 01:11:36 72° 64° (ENE) 01:16:03 437.305
Gurwin Techsat 1B 08 Dec 01:11:48 01:16:06 24° 93° (E) 01:20:23 435.225
TISAT 1 08 Dec 01:16:43 01:20:41 38° 262° (W) 01:24:41 437.305
JAS-2 08 Dec 01:16:50 01:20:13 18° 301° (WNW) 01:23:39 435.910
BUGSAT 1 08 Dec 01:24:23 01:28:05 30° 292° (WNW) 01:31:43 437.445
MOZHAYETS 4 08 Dec 01:25:16 01:27:43 14° 60° (ENE) 01:30:10
AO-7 08 Dec 01:48:49 01:50:53 11° 83° (E) 01:52:56 29.400- 29.500
AUBIESAT-1 08 Dec 01:56:56 02:01:04 55° 255° (WSW) 02:05:29 437.475
AO-85 08 Dec 02:02:21 02:07:14 76° 306° (NW) 02:11:45 145.980
SWISSCUBE 08 Dec 02:08:36 02:13:15 53° 260° (W) 02:17:56 437.505
M-CUBED/EXP-1 PRIME 08 Dec 02:11:30 02:15:17 32° 260° (W) 02:19:18 437.505
BEESAT 08 Dec 02:12:23 02:17:03 54° 259° (W) 02:21:45 436.000
PHONESAT 2.4 08 Dec 02:38:12 02:40:24 23° 190° (S) 02:42:35 2401.200-2431.200
Oscar 19 08 Dec 02:38:35 02:43:13 33° 294° (WNW) 02:47:50 437.125/150
ITUPSAT 1 08 Dec 02:42:10 02:46:20 30° 264° (W) 02:50:32 437.325
O/OREOS (USA 219) 08 Dec 02:48:32 02:50:22 12° 262° (W) 02:52:12 437.305
Gurwin Techsat 1B 08 Dec 02:51:11 02:56:17 48° 291° (WNW) 03:01:22 435.225
GONETS M04 08 Dec 02:59:01 03:04:53 19° 303° (WNW) 03:10:46
MOZHAYETS 4 08 Dec 02:59:44 03:04:18 73° 257° (WSW) 03:08:54
Cosmos 2499 08 Dec 03:04:23 03:09:35 17° 306° (NW) 03:14:53 435.465 / 435.565
SO-50 08 Dec 03:08:32 03:12:37 31° 43° (NE) 03:16:37 436.795
CUBESAT XI-V 08 Dec 03:09:12 03:12:50 23° 65° (ENE) 03:16:28 437.345
ITAMSAT 1 08 Dec 03:11:05 03:16:16 66° 102° (ESE) 03:21:24 435.822/435.867
KKS-1 08 Dec 03:14:28 03:18:55 73° 73° (ENE) 03:23:25 437.445
STARS 08 Dec 03:14:55 03:18:58 36° 68° (ENE) 03:23:02 437.465
BEESAT 3 08 Dec 03:34:46 03:37:07 15° 111° (ESE) 03:39:29 437.485
AO-7 08 Dec 03:37:07 03:45:24 60° 103° (ESE) 03:53:39 29.400- 29.500
AO-85 08 Dec 03:45:29 03:48:20 16° 326° (NW) 03:51:04 145.980
BEESAT 2 08 Dec 04:08:26 04:10:54 16° 112° (ESE) 04:13:26 435.950
Cosmos 2504 08 Dec 04:19:04 04:22:37 13° 49° (NE) 04:26:07 435.465 / 435.565
HORYU 2 08 Dec 04:19:15 04:21:21 13° 90° (E) 04:23:26 437.375
YUBILEINY 08 Dec 04:31:26 04:38:54 29° 64° (ENE) 04:46:19 435.215
BRITE-PL 08 Dec 04:38:33 04:43:34 36° 96° (E) 04:48:45 437.365/2234.400
CUBESAT XI-V 08 Dec 04:45:39 04:49:59 41° 262° (W) 04:54:21 437.345
RS-15 08 Dec 04:46:49 04:51:12 13° 91° (E) 04:55:39 29.354- 29.394
SO-50 08 Dec 04:48:56 04:53:09 38° 242° (WSW) 04:57:17 436.795
ITAMSAT 1 08 Dec 04:51:38 04:55:13 19° 301° (WNW) 04:58:48 435.822/435.867
STARS 08 Dec 04:51:45 04:55:23 25° 265° (W) 04:59:03 437.465
KKS-1 08 Dec 04:54:07 04:55:59 12° 271° (W) 04:57:52 437.445
CUTE-I 08 Dec 05:02:47 05:05:08 13° 87° (E) 05:07:27 437.470
Cosmos 2491 08 Dec 05:05:47 05:11:33 20° 76° (ENE) 05:17:18 435.465 / 435.565
BEESAT 3 08 Dec 05:10:28 05:14:18 55° 309° (NW) 05:18:13 437.485
NOAA 15 08 Dec 05:17:12 05:20:57 19° 91° (E) 05:24:43 137.62
Cubesat XI-IV 08 Dec 05:28:07 05:32:13 22° 92° (E) 05:36:17 437.490
NOAA 18 08 Dec 05:30:14 05:33:17 15° 89° (E) 05:36:18 137.9125
AO-7 08 Dec 05:30:23 05:37:49 37° 304° (NW) 05:45:15 29.400- 29.500
LilacSat-2 08 Dec 05:34:58 05:38:00 22° 94° (E) 05:41:00 437.200
AIST 1 08 Dec 05:37:40 05:41:14 23° 71° (ENE) 05:44:47
DOVE 4 08 Dec 05:40:51 05:45:15 26° 92° (E) 05:49:31 437.250
GOMX 1 08 Dec 05:41:05 05:46:30 57° 99° (E) 05:51:53 467.674
BEESAT 2 08 Dec 05:44:26 05:48:18 53° 309° (NW) 05:52:15 435.950
HORYU 2 08 Dec 05:53:57 05:58:23 67° 287° (WNW) 06:02:45 437.375
STRAND 1 08 Dec 06:01:25 06:06:22 51° 70° (ENE) 06:11:20 437.568
Cosmos 2504 08 Dec 06:09:52 06:18:30 54° 74° (ENE) 06:26:37 435.465 / 435.565
BRITE-PL 08 Dec 06:17:02 06:21:59 37° 292° (WNW) 06:27:07 437.365/2234.400
YUBILEINY 08 Dec 06:27:44 06:36:30 71° 266° (W) 06:45:15 435.215
CANX-2 08 Dec 06:31:30 06:33:01 12° 88° (E) 06:34:31 2200.000
CUTE-I 08 Dec 06:40:32 06:45:54 88° 287° (WNW) 06:51:13 437.470
CINEMA 3 08 Dec 06:43:02 06:46:57 25° 92° (E) 06:50:44 145.822/145.860
RS-15 08 Dec 06:49:19 07:00:42 59° 114° (ESE) 07:12:36 29.354- 29.394
BEESAT 3 08 Dec 06:51:40 06:52:49 11° 330° (NNW) 06:53:59 437.485
SEEDS 08 Dec 06:52:12 06:53:34 11° 88° (E) 06:54:58 437.485
AIST 2 08 Dec 06:54:41 06:58:01 24° 114° (ESE) 07:01:22 435.215
NOAA 15 08 Dec 06:55:56 07:01:09 61° 289° (WNW) 07:06:20 137.62
Cosmos 2491 08 Dec 06:58:18 07:07:07 89° 95° (E) 07:15:55 435.465 / 435.565
Cubesat XI-IV 08 Dec 07:07:24 07:12:36 54° 290° (WNW) 07:17:47 437.490
LilacSat-2 08 Dec 07:09:02 07:12:17 28° 291° (WNW) 07:15:32 437.200
NOAA 18 08 Dec 07:09:03 07:14:38 83° 286° (WNW) 07:20:08 137.9125
AIST 1 08 Dec 07:14:55 07:18:55 35° 269° (W) 07:22:54
DOVE 4 08 Dec 07:18:03 07:23:06 45° 290° (WNW) 07:27:59 437.250
GOMX 1 08 Dec 07:19:53 07:24:09 24° 297° (WNW) 07:28:26 467.674
HO-68 08 Dec 07:21:15 07:28:02 42° 98° (E) 07:34:45 435.675
BEESAT 2 08 Dec 07:25:51 07:27:00 11° 330° (NNW) 07:28:09 435.950
AO-7 08 Dec 07:26:56 07:28:10 10° 327° (NNW) 07:29:24 29.400- 29.500
STRAND 1 08 Dec 07:41:53 07:45:49 22° 267° (W) 07:49:47 437.568
CUTE 1.7 + AOD 2 08 Dec 07:46:34 07:50:47 65° 101° (E) 07:54:58 437.475
UNISAT 6 08 Dec 07:52:44 07:54:54 13° 59° (ENE) 07:57:02 437.425
AAUSAT CUBESAT 2 08 Dec 07:58:59 08:02:43 31° 96° (E) 08:06:25 437.432
ZACube-1 08 Dec 07:59:49 08:02:09 14° 90° (E) 08:04:28 437.345
Cosmos 2504 08 Dec 08:03:45 08:11:33 37° 276° (W) 08:18:57 435.465 / 435.565
CANX-2 08 Dec 08:05:08 08:09:19 69° 286° (WNW) 08:13:32 2200.000
FUNcube-1 08 Dec 08:05:58 08:08:30 15° 90° (E) 08:10:59 145.935
PRISM 08 Dec 08:10:27 08:14:29 69° 74° (ENE) 08:18:34 437.425
CINEMA 3 08 Dec 08:19:45 08:24:13 39° 291° (WNW) 08:28:29 145.822/145.860
TIGRISAT 08 Dec 08:20:18 08:23:52 22° 64° (ENE) 08:27:24 435.000
CUBEBUG 2 08 Dec 08:21:32 08:25:54 63° 101° (E) 08:30:06 437.445
ANTELSAT 08 Dec 08:22:13 08:25:57 24° 65° (ENE) 08:29:37 437.575/2403.000
CUTE-I 08 Dec 08:22:21 08:25:10 15° 304° (NW) 08:28:00 437.470
SEEDS 08 Dec 08:25:34 08:29:45 70° 285° (WNW) 08:33:55 437.485
YUBILEINY 08 Dec 08:27:21 08:31:34 15° 288° (WNW) 08:35:48 435.215
COMPASS 1 08 Dec 08:31:23 08:35:33 88° 291° (WNW) 08:39:44 437.405
AIST 2 08 Dec 08:32:23 08:36:17 40° 313° (NW) 08:40:15 435.215
Oscar 11 08 Dec 08:32:34 08:36:21 29° 95° (E) 08:40:06 145.826/435.025
DELFI C3 08 Dec 08:38:33 08:39:59 12° 89° (E) 08:41:23 145.870
CUSAT 1 08 Dec 08:44:58 08:47:34 29° 97° (E) 08:49:56 437.405
